Temperature
6 4 5 5 5 5 5 4 4 4 5 5 4 5 6 6 6 6 6 7 7 8 8 8 8 9 9 9 9 9 9 9 9 9 9 9 9 10 10 10 10 10 10 10
4 5 6 6 6 5 4 4 4 4 5 5 4 4 5 5 6 6 6 7 7 7 8 8 8 8 8 8 8 9 9 9 9 9 9 9 9 9 9 9 9 10 10 10
6 6 6 6 5 5 5 4 4 4 4 4 4 5 6 6 6 6 7 7 7 7 7 8 8 8 8 8 8 8 8 9 9 9 9 9 9 9 9 9 9 9 9 9
5 5 6 6 5 5 5 5 5 4 3 3 4 4 5 5 5 6 6 7 7 7 7 7 8 8 8 8 8 8 8 8 9 9 8 8 8 8 8 8 9 9 9 9
5 5 5 5 6 5 5 5 4 4 3 3 3 3 4 4 5 6 6 7 7 7 7 7 7 8 8 8 8 8 8 8 8 8 8 8 8 8 8 8 8 9 9 9
4 5 5 5 5 5 5 4 4 3 2 3 3 3 4 4 5 6 6 7 7 7 7 7 7 7 8 8 7 7 7 8 8 8 8 8 8 8 8 8 8 8 8 8
4 5 5 5 5 5 4 3 3 3 2 3 3 3 4 5 5 5 5 6 7 7 7 7 7 7 7 7 7 7 7 7 7 7 8 8 8 8 8 8 8 8 8 8
4 5 5 5 5 4 4 3 3 4 3 3 3 3 4 5 5 5 6 6 6 7 7 7 7 7 7 7 7 7 7 7 7 7 7 7 7 7 7 7 7 8 8 8
3 4 4 4 4 5 4 3 3 2 1 1 2 2 3 5 5 5 5 6 6 6 6 6 6 6 6 6 7 7 7 7 7 7 7 7 7 7 7 7 7 7 8 8
3 3 3 3 4 4 4 3 1 1 2 3 3 2 3 4 5 5 4 5 5 6 6 6 6 6 6 6 6 6 6 6 6 6 6 6 7 7 7 7 7 7 7 8
3 2 3 3 3 3 3 3 2 1 1 2 2 4 4 4 4 4 4 5 5 5 5 5 5 6 6 6 6 6 6 6 6 6 6 6 6 6 7 7 7 7 7 7
2 1 1 2 3 3 3 3 2 2 1 1 1 4 5 4 4 4 4 5 5 5 5 5 5 5 5 5 5 5 5 5 6 6 6 6 6 6 7 6 6 7 7 7
2 1 2 4 3 2 2 2 2 1 1 0 1 4 5 4 4 5 4 5 5 5 5 5 5 5 5 5 5 5 5 5 5 5 6 6 6 6 6 6 6 6 6 7
3 1 2 4 4 2 1 2 1 1 1 1 2 3 4 4 4 4 4 4 4 4 4 4 4 4 4 4 4 5 5 5 5 5 5 5 5 6 6 6 6 6 6 6
3 1 1 1 2 2 2 2 2 1 1 2 2 3 4 4 3 3 4 4 4 4 4 4 4 4 4 4 4 4 5 5 5 5 5 5 5 5 5 5 6 6 6 6
2 2 1 1 2 1 2 2 2 2 2 2 2 3 4 4 3 3 3 3 3 4 4 4 3 3 3 3 4 4 4 5 5 5 4 5 5 5 5 5 5 6 6 6
1 1 1 1 1 1 2 2 2 2 1 1 2 3 3 3 2 3 3 3 3 4 4 3 3 3 3 3 3 3 4 4 4 4 4 4 4 5 5 5 5 5 5 5
1 1 1 1 0 2 4 3 3 2 2 2 2 2 2 2 3 4 4 4 4 4 3 3 3 3 3 3 3 3 4 4 4 4 4 4 4 4 5 5 5 5 5 5
1 1 1 0 0 1 2 3 2 2 2 2 2 2 2 3 2 3 5 4 4 3 3 3 3 3 3 3 3 3 3 3 3 3 3 4 4 4 4 4 4 4 4 4
1 1 1 1 1 2 4 3 3 2 2 2 2 2 2 2 1 2 4 4 4 3 3 3 2 2 3 2 3 3 3 3 3 3 3 3 3 3 3 3 4 4 4 4
0 0 1 1 1 2 2 2 3 2 3 4 3 3 3 1 2 4 4 3 3 3 3 2 2 2 2 2 2 2 2 2 2 2 2 2 2 2 3 3 3 4 4 4
1 0 0 0 1 2 3 2 2 3 4 4 4 4 3 3 3 3 3 3 3 3 2 2 2 2 2 2 2 2 2 2 2 2 2 2 2 2 2 3 3 3 3 4
1 1 1 1 3 3 3 3 4 4 4 4 4 4 3 3 3 3 3 2 2 2 2 2 2 2 2 2 1 1 1 1 1 1 1 2 2 2 2 2 3 3 3 3
-0 -0 -0 -1 0 1 3 4 4 4 4 4 4 3 3 2 2 2 2 2 2 2 2 1 1 1 1 1 1 1 1 1 1 1 1 1 1 2 2 2 2 2 2 3
1 -1 -1 -1 0 1 3 4 4 4 4 4 3 3 2 2 2 2 2 2 1 1 1 1 1 1 1 1 1 1 1 1 1 1 1 1 1 1 1 2 2 2 2 2
-0 -0 0 1 2 1 2 4 4 4 3 3 3 2 2 2 2 1 1 1 1 1 1 1 1 0 0 0 0 0 0 0 0 0 1 1 1 1 1 1 2 2 2 2
Wind_Speed
3 3 1 3 4 5 5 6 11 11 8 8 12 16 18 10 7 8 7 7 8 10 9 8 6 4 4 5 6 6 6 5 5 4 4 4 5 4 5 6 8 10 10 11
3 1 4 4 4 4 5 7 9 10 6 7 10 13 12 6 6 6 6 7 8 9 10 9 6 4 4 5 6 6 6 6 5 5 6 5 5 5 6 6 7 9 10 11
3 3 2 2 3 4 6 6 7 9 10 5 6 8 5 4 4 5 5 5 7 8 9 8 8 6 5 6 6 6 7 6 6 6 4 3 2 2 4 5 6 8 10 11
3 4 3 3 3 2 6 5 7 7 6 5 4 5 6 5 7 6 6 6 8 9 8 8 8 8 7 7 6 7 7 7 6 6 6 7 6 6 6 7 7 8 9 11
3 2 2 3 4 3 6 6 6 5 3 3 2 2 8 4 5 7 7 7 8 8 8 9 8 8 7 6 6 7 7 6 5 6 8 8 7 7 5 6 7 8 8 10
4 3 3 3 3 2 5 4 2 2 2 2 2 2 6 4 4 6 7 8 9 9 9 9 8 8 7 6 6 6 6 6 5 6 8 9 9 8 7 8 8 8 7 8
6 3 1 1 2 3 5 5 5 7 5 4 2 2 7 6 5 5 8 10 10 9 9 9 10 9 8 7 7 6 6 7 6 7 8 8 9 9 9 9 9 8 7 7
4 5 2 1 0 1 2 3 3 2 4 6 4 5 7 6 5 5 6 7 8 10 9 10 10 9 9 8 7 7 7 8 7 7 7 7 7 7 7 8 8 9 9 9
1 6 2 1 1 2 1 1 3 3 2 4 6 7 9 5 6 6 7 8 9 10 10 10 10 10 10 10 9 8 8 8 7 7 7 7 7 7 7 7 7 8 8 8
4 5 5 4 1 1 2 4 4 3 1 5 7 5 5 8 8 8 9 10 11 12 12 12 12 12 11 10 9 8 7 8 7 6 6 6 7 7 7 7 7 7 7 7
3 2 6 3 2 3 2 2 3 2 2 2 5 7 5 8 7 8 10 11 11 12 12 12 12 12 11 10 9 8 7 7 6 6 5 6 7 6 6 6 7 6 5 6
3 3 5 6 3 1 3 4 5 3 3 3 4 9 6 5 6 6 10 12 12 12 12 12 12 12 11 10 9 8 8 6 5 5 5 5 5 4 4 5 6 5 6 6
5 3 3 4 2 1 1 2 4 3 3 4 5 9 4 5 8 9 10 12 12 13 13 12 11 11 11 11 9 8 8 7 6 4 4 3 3 2 3 4 4 4 5 4
5 4 6 8 6 3 4 4 4 5 5 6 11 16 16 14 14 13 13 13 13 12 12 11 11 11 12 11 10 7 7 7 5 4 3 3 3 3 3 3 3 4 4 4
4 5 7 11 10 7 9 11 10 11 11 11 14 16 21 16 14 13 11 12 12 12 12 12 11 11 11 11 11 9 7 6 5 3 3 3 3 3 3 3 3 3 3 4
4 4 3 7 8 9 14 17 16 15 14 16 19 21 18 14 10 9 10 10 11 12 12 12 11 11 11 11 11 10 8 7 5 4 4 4 3 3 3 3 3 2 2 2
5 3 2 6 5 5 10 11 12 8 9 9 14 14 11 10 10 9 9 9 10 11 11 11 11 10 10 10 10 9 8 6 5 4 4 4 3 3 3 3 3 2 2 2
7 5 3 4 3 7 7 3 7 8 10 12 11 11 10 10 10 9 8 8 10 11 10 10 9 10 10 9 8 8 7 5 4 4 4 5 4 4 4 3 3 3 3 2
8 7 4 2 4 10 9 5 6 6 8 8 10 11 9 8 6 7 7 6 9 9 9 8 8 8 8 8 8 8 7 5 5 5 5 5 5 5 5 4 4 3 3 3
6 6 5 4 4 7 7 3 3 2 6 6 6 8 7 3 5 8 8 8 9 8 7 7 7 7 7 8 7 7 7 5 5 5 5 5 4 4 4 4 4 4 3 4
5 6 10 10 8 10 8 4 5 3 7 4 6 7 6 6 8 9 9 9 9 8 8 7 6 6 7 7 6 7 6 6 6 5 5 4 4 4 4 4 4 3 3 3
11 9 9 7 8 11 6 7 8 9 4 4 6 7 7 9 10 10 10 10 9 9 8 7 6 7 7 5 5 6 6 6 6 5 5 5 4 4 4 4 4 3 3 2
11 11 8 11 11 5 6 8 7 4 5 6 6 8 8 9 9 10 9 10 9 8 8 7 7 8 7 5 4 6 7 6 5 5 5 5 5 4 4 3 4 3 2 1
6 5 5 7 10 9 8 8 8 7 8 8 8 8 7 9 10 10 9 9 8 8 8 7 7 7 7 7 6 6 6 5 5 5 5 5 4 5 5 3 3 2 2 2
8 8 6 8 8 8 8 9 10 9 8 8 8 8 8 9 10 9 9 9 8 8 7 6 6 7 8 8 7 7 5 4 5 5 5 5 4 4 4 3 3 3 3 3
8 9 9 10 9 8 8 7 7 8 9 9 9 9 8 7 9 8 8 8 7 7 7 7 7 7 8 8 8 7 5 4 5 5 5 4 3 3 3 3 4 5 4 6
Wind_Direction
23 60 305 252 215 225 249 259 274 274 280 289 270 277 287 296 293 288 299 303 304 301 300 302 284 282 267 260 256 253 251 254 243 207 197 211 208 213 215 216 211 208 206 203
34 274 251 248 244 251 250 267 275 284 287 290 285 282 280 286 277 279 291 302 305 308 317 317 311 294 275 268 263 256 249 247 243 220 205 211 211 214 217 216 216 211 209 206
209 251 283 276 288 289 267 246 265 287 313 299 310 305 299 316 298 291 288 289 304 306 304 311 307 292 278 270 262 263 260 256 247 225 210 218 214 221 216 219 221 216 214 212
262 276 294 293 279 272 281 250 265 288 318 310 11 313 299 316 315 310 308 314 316 311 306 307 307 298 281 269 265 261 260 255 249 222 205 206 215 230 232 226 226 221 219 215
280 289 292 280 275 254 262 289 282 281 249 302 326 251 289 317 306 305 310 314 315 317 314 309 306 295 286 274 270 269 267 262 253 227 214 210 219 227 230 230 227 224 223 218
264 269 234 249 283 257 296 329 353 52 66 316 272 215 292 288 271 302 314 321 319 323 322 316 311 307 306 298 285 277 269 266 255 236 223 215 220 224 226 231 230 228 225 220
328 306 277 270 327 0 26 30 9 1 1 278 310 264 263 270 269 277 298 312 318 321 321 322 322 320 314 307 293 281 270 269 262 245 234 225 224 219 224 229 230 232 226 224
344 305 304 359 172 313 350 95 113 281 283 301 318 267 267 274 286 289 297 306 318 321 320 322 321 319 314 305 298 289 279 271 264 250 245 241 237 228 229 229 230 230 228 226
227 279 314 321 279 157 96 115 156 159 286 289 282 287 301 289 307 316 323 323 321 322 324 324 324 323 318 313 303 291 284 282 271 256 251 249 241 232 234 234 237 234 231 230
167 274 294 312 336 13 148 142 94 106 335 299 297 283 276 296 302 317 324 325 324 327 327 327 327 324 320 316 309 303 290 283 280 267 261 258 248 235 231 231 234 238 236 230
150 218 304 336 196 192 114 123 122 131 172 222 293 281 243 258 281 299 310 315 318 321 322 323 324 324 320 321 320 317 308 298 290 276 267 266 254 242 236 230 229 232 239 233
158 152 275 266 254 191 172 174 150 166 250 221 257 278 275 259 280 298 311 316 319 319 320 322 324 327 329 324 320 321 321 312 301 289 278 272 259 248 239 235 231 230 232 235
148 138 320 332 354 25 214 200 179 167 179 210 236 270 294 314 311 311 313 316 319 321 322 325 328 330 329 327 321 321 321 318 315 304 295 294 272 257 253 245 237 229 230 236
145 176 203 230 245 220 255 236 198 186 226 247 242 266 289 300 305 310 313 314 315 317 319 323 327 328 327 327 324 318 319 318 320 314 306 305 290 265 263 264 251 244 237 235
154 226 237 253 262 260 254 255 235 222 225 239 260 267 279 289 296 301 304 309 315 318 320 321 323 324 326 329 330 325 321 322 328 333 317 303 303 290 271 270 262 246 242 241
175 234 257 267 255 259 265 259 246 240 240 244 262 274 273 283 293 295 299 305 311 313 316 317 320 322 325 327 328 330 329 332 343 349 333 318 317 308 295 292 287 266 260 260
186 195 266 277 297 298 268 245 225 220 217 216 242 257 282 296 294 292 292 294 298 304 311 315 317 316 318 321 323 327 325 331 343 344 337 333 327 318 309 304 314 309 288 283
178 177 219 286 346 259 250 199 199 222 244 230 242 262 277 276 286 284 273 274 289 300 306 309 312 313 314 318 321 324 327 333 339 340 338 337 335 326 329 330 328 318 307 292
189 184 205 227 263 276 284 242 193 209 265 234 236 260 276 290 310 295 272 267 280 289 294 298 301 304 309 314 317 323 325 328 335 336 333 329 335 334 332 329 321 317 309 297
187 190 205 207 236 254 256 203 164 121 282 245 218 251 273 302 311 294 296 295 293 293 295 299 305 309 312 314 320 324 322 325 325 322 321 324 329 326 319 311 307 308 303 297
165 194 215 223 239 262 251 191 129 177 251 243 216 238 247 237 248 274 295 297 291 292 295 301 306 308 306 313 324 322 321 315 306 308 314 319 316 312 305 311 307 305 307 305
179 186 200 199 224 251 201 151 186 222 236 226 238 243 248 257 269 279 285 289 292 296 299 303 305 302 304 309 317 317 312 307 309 311 312 311 311 311 315 312 310 305 308 313
200 195 193 201 220 241 179 202 221 221 239 245 245 256 260 267 273 279 283 287 289 289 294 300 298 301 307 312 314 309 306 310 313 306 303 304 308 305 300 297 306 315 317 319
230 197 201 243 257 256 250 253 257 247 246 256 257 263 263 265 274 281 286 290 292 292 294 298 302 305 306 308 307 299 302 308 310 302 299 299 303 305 303 299 295 296 306 304
205 180 205 244 264 283 265 244 249 257 260 265 268 264 260 265 275 276 282 285 288 290 292 293 292 293 294 302 304 304 304 309 307 298 298 301 299 302 314 320 307 291 275 268
191 188 198 234 225 220 249 245 243 251 262 265 271 277 273 262 268 276 279 281 284 287 292 294 292 291 295 300 302 302 303 299 298 301 301 300 300 304 308 318 327 324 302 309
Height
1489 1492 1493 1491 1490 1490 1491 1491 1489 1481 1474 1474 1467 1460 1452 1448 1448 1446 1444 1441 1438 1436 1433 1432 1431 1429 1428 1428 1428 1427 1427 1428 1429 1429 1430 1431 1432 1434 1436 1438 1440 1442 1444 1447
1492 1492 1488 1487 1488 1488 1489 1489 1485 1477 1472 1471 1465 1457 1449 1447 1445 1443 1441 1439 1437 1434 1430 1429 1427 1426 1425 1424 1423 1423 1423 1423 1424 1424 1425 1427 1427 1429 1431 1432 1434 1436 1438 1441
1490 1488 1486 1486 1486 1486 1484 1485 1482 1478 1473 1469 1467 1454 1448 1445 1443 1442 1440 1438 1436 1433 1429 1427 1425 1423 1421 1420 1419 1419 1418 1418 1419 1420 1421 1422 1423 1424 1425 1427 1428 1431 1433 1435
1489 1487 1486 1485 1484 1484 1483 1478 1477 1476 1479 1476 1473 1468 1451 1447 1443 1439 1437 1435 1433 1430 1427 1425 1422 1420 1418 1417 1416 1415 1414 1413 1414 1415 1415 1416 1417 1418 1420 1422 1423 1425 1427 1429
1488 1486 1486 1485 1482 1482 1480 1476 1476 1476 1478 1480 1475 1475 1457 1449 1444 1438 1435 1433 1431 1429 1426 1423 1420 1418 1416 1414 1412 1410 1409 1409 1409 1410 1410 1411 1412 1414 1415 1417 1418 1419 1420 1423
1487 1485 1485 1483 1481 1480 1478 1477 1476 1479 1482 1481 1474 1475 1461 1451 1443 1438 1434 1432 1430 1428 1425 1421 1418 1415 1412 1410 1408 1406 1405 1405 1404 1404 1405 1406 1407 1408 1409 1410 1411 1412 1414 1416
1488 1484 1483 1482 1481 1480 1482 1485 1486 1485 1489 1480 1473 1472 1459 1445 1441 1438 1435 1432 1429 1426 1423 1419 1415 1412 1409 1407 1405 1403 1402 1400 1400 1400 1400 1400 1401 1401 1403 1404 1405 1407 1408 1410
1494 1488 1483 1482 1483 1484 1484 1487 1495 1494 1493 1482 1475 1471 1453 1442 1439 1437 1435 1432 1428 1425 1421 1418 1414 1411 1407 1404 1402 1399 1397 1395 1395 1395 1395 1395 1395 1396 1397 1398 1399 1401 1402 1404
1497 1490 1484 1483 1482 1483 1485 1489 1490 1497 1498 1495 1480 1469 1451 1438 1436 1434 1433 1430 1426 1423 1420 1416 1412 1408 1404 1400 1397 1395 1392 1391 1390 1390 1390 1390 1390 1390 1391 1392 1394 1395 1396 1398
1494 1495 1486 1484 1482 1483 1484 1488 1495 1498 1498 1491 1477 1471 1457 1442 1438 1434 1432 1429 1425 1422 1417 1413 1409 1405 1401 1397 1394 1391 1389 1387 1386 1386 1385 1385 1384 1384 1385 1385 1386 1387 1389 1392
1493 1497 1490 1486 1483 1484 1486 1488 1490 1497 1497 1495 1486 1463 1445 1442 1437 1435 1432 1428 1425 1421 1417 1412 1407 1403 1398 1395 1391 1388 1386 1384 1382 1381 1380 1380 1379 1379 1379 1379 1380 1381 1383 1386
1493 1498 1496 1487 1482 1481 1483 1485 1489 1495 1496 1496 1489 1462 1439 1438 1435 1434 1431 1427 1423 1419 1415 1410 1405 1401 1396 1392 1389 1386 1383 1381 1379 1377 1376 1375 1374 1374 1374 1374 1375 1377 1379 1381
1491 1496 1493 1482 1486 1486 1485 1484 1485 1488 1492 1493 1487 1458 1437 1436 1434 1432 1429 1425 1421 1417 1412 1408 1403 1399 1394 1390 1386 1383 1379 1377 1375 1374 1372 1372 1371 1370 1370 1371 1372 1373 1374 1376
1486 1492 1492 1484 1479 1483 1484 1482 1483 1485 1486 1481 1470 1452 1438 1436 1433 1430 1427 1423 1419 1415 1410 1406 1401 1397 1392 1387 1383 1380 1377 1375 1373 1372 1370 1369 1368 1367 1367 1367 1368 1369 1370 1371
1484 1487 1487 1483 1479 1480 1478 1475 1476 1477 1474 1472 1456 1450 1438 1434 1433 1429 1425 1421 1417 1412 1408 1404 1400 1395 1390 1385 1380 1377 1374 1373 1371 1369 1367 1366 1365 1365 1365 1365 1366 1366 1366 1367
1481 1483 1483 1479 1475 1475 1471 1464 1464 1464 1463 1460 1453 1445 1433 1432 1430 1426 1423 1419 1415 1410 1406 1402 1398 1393 1388 1384 1379 1376 1373 1370 1369 1367 1365 1365 1364 1363 1363 1362 1363 1363 1363 1363
1479 1481 1481 1477 1475 1472 1463 1452 1452 1453 1450 1451 1448 1438 1430 1429 1426 1423 1420 1416 1413 1409 1404 1400 1396 1391 1387 1383 1379 1375 1372 1370 1368 1366 1365 1363 1362 1361 1360 1360 1360 1359 1359 1359
1475 1478 1479 1478 1478 1467 1446 1442 1442 1444 1441 1440 1437 1433 1430 1427 1423 1420 1417 1414 1410 1406 1402 1398 1395 1390 1386 1383 1379 1375 1372 1370 1368 1366 1364 1362 1361 1360 1359 1358 1358 1357 1357 1357
1467 1472 1476 1478 1477 1462 1445 1439 1440 1441 1437 1432 1432 1429 1426 1423 1420 1416 1414 1411 1408 1404 1401 1397 1393 1389 1385 1381 1378 1374 1372 1369 1367 1365 1363 1361 1360 1358 1357 1357 1356 1355 1354 1354
1465 1467 1471 1472 1470 1457 1437 1435 1434 1437 1437 1426 1426 1425 1423 1422 1422 1414 1410 1408 1404 1401 1397 1394 1390 1387 1383 1380 1376 1373 1370 1368 1366 1364 1362 1361 1359 1358 1356 1355 1354 1353 1352 1352
1464 1465 1465 1464 1462 1447 1433 1431 1434 1440 1431 1422 1421 1420 1419 1419 1416 1411 1407 1404 1401 1397 1394 1390 1387 1384 1381 1378 1375 1371 1369 1366 1364 1363 1361 1359 1358 1357 1355 1353 1352 1351 1350 1350
1451 1456 1458 1458 1456 1441 1425 1429 1430 1424 1419 1418 1418 1417 1415 1413 1410 1407 1404 1401 1397 1393 1390 1387 1384 1381 1379 1376 1373 1369 1367 1365 1362 1360 1359 1357 1356 1354 1353 1351 1350 1349 1348 1348
1439 1437 1437 1437 1429 1419 1419 1418 1417 1417 1416 1415 1414 1413 1411 1408 1405 1403 1400 1397 1393 1390 1387 1384 1381 1378 1375 1373 1370 1367 1365 1363 1360 1358 1356 1355 1353 1351 1350 1349 1347 1347 1346 1345
1431 1429 1431 1430 1420 1415 1415 1414 1414 1413 1412 1411 1410 1408 1406 1404 1401 1398 1395 1392 1389 1386 1384 1381 1377 1374 1372 1370 1368 1365 1362 1360 1357 1355 1353 1351 1350 1348 1348 1347 1346 1345 1344 1343
1419 1423 1424 1422 1414 1412 1408 1408 1408 1408 1407 1406 1405 1403 1401 1399 1396 1394 1391 1388 1385 1382 1380 1377 1375 1372 1369 1367 1365 1362 1360 1357 1354 1352 1350 1349 1347 1346 1344 1343 1343 1342 1342 1343
1410 1412 1414 1409 1405 1406 1403 1403 1404 1403 1402 1401 1399 1397 1396 1394 1391 1389 1386 1383 1381 1378 1376 1373 1371 1369 1366 1363 1361 1359 1357 1354 1351 1349 1347 1346 1344 1343 1342 1340 1340 1340 1340 1340